"datetime","temp","dp","rain_mm","uv","solar","mb","wind_mph","gust_mph","windchill","rh"
"2022-12-30 00:00:00",3.0,2.0,0.0,0.0,0,1004.9,0,1,"",93
"2022-12-30 00:01:00",3.0,2.0,0.0,0.0,0,1004.9,1,1,"",93
"2022-12-30 00:02:00",3.0,2.0,0.0,0.0,0,1004.9,1,1,"",93
"2022-12-30 00:03:00",3.0,2.0,0.0,0.0,0,1004.9,1,1,"",93
"2022-12-30 00:04:00",3.0,2.0,0.0,0.0,0,1004.8,0,0,"",93
"2022-12-30 00:05:00",2.9,1.9,0.0,0.0,0,1004.8,0,1,"",93
"2022-12-30 00:06:00",2.9,1.9,0.0,0.0,0,1004.9,0,1,"",93
"2022-12-30 00:07:00",2.9,1.9,0.0,0.0,0,1004.8,1,2,"",93
"2022-12-30 00:08:00",2.9,1.9,0.0,0.0,0,1004.8,1,3,"",93
"2022-12-30 00:09:00",2.9,1.9,0.0,0.0,0,1004.8,0,1,"",93
"2022-12-30 00:10:00",2.9,1.9,0.0,0.0,0,1004.8,0,1,"",93
"2022-12-30 00:11:00",2.9,1.9,0.0,0.0,0,1004.8,0,0,"",93
"2022-12-30 00:12:00",2.9,1.9,0.0,0.0,0,1004.8,0,0,"",93
"2022-12-30 00:13:00",2.9,1.9,0.0,0.0,0,1004.8,0,1,"",93
"2022-12-30 00:14:00",2.9,1.9,0.0,0.0,0,1004.7,0,1,"",93
"2022-12-30 00:15:00",2.9,1.9,0.0,0.0,0,1004.7,0,1,"",93
"2022-12-30 00:16:00",2.8,1.8,0.0,0.0,0,1004.8,1,2,"",93
"2022-12-30 00:17:00",2.8,1.8,0.0,0.0,0,1004.8,1,2,"",93
"2022-12-30 00:18:00",2.8,1.8,0.0,0.0,0,1004.7,0,2,"",93
"2022-12-30 00:19:00",2.8,1.8,0.0,0.0,0,1004.7,1,2,"",93
"2022-12-30 00:20:00",2.8,1.8,0.0,0.0,0,1004.8,0,1,"",93
"2022-12-30 00:21:00",2.8,1.8,0.0,0.0,0,1004.7,0,1,"",93
"2022-12-30 00:22:00",2.8,1.8,0.0,0.0,0,1004.7,1,2,"",93
"2022-12-30 00:23:00",2.8,1.8,0.0,0.0,0,1004.7,0,1,"",93
"2022-12-30 00:24:00",2.8,1.8,0.0,0.0,0,1004.7,0,1,"",93
"2022-12-30 00:25:00",2.8,1.8,0.0,0.0,0,1004.7,1,3,"",93
"2022-12-30 00:26:00",2.8,1.8,0.0,0.0,0,1004.6,2,5,0.5,93
"2022-12-30 00:27:00",2.8,1.8,0.0,0.0,0,1004.7,2,3,"",93
"2022-12-30 00:28:00",2.8,1.8,0.0,0.0,0,1004.6,1,2,"",93
"2022-12-30 00:29:00",2.8,1.8,0.0,0.0,0,1004.5,2,5,0.5,93
"2022-12-30 00:30:00",2.8,1.8,0.0,0.0,0,1004.5,1,2,"",93
"2022-12-30 00:31:00",2.7,1.7,0.0,0.0,0,1004.5,0,1,"",93
"2022-12-30 00:32:00",2.7,1.7,0.0,0.0,0,1004.5,0,1,"",93
"2022-12-30 00:33:00",2.8,1.8,0.0,0.0,0,1004.5,0,1,"",93
"2022-12-30 00:34:00",2.7,1.7,0.0,0.0,0,1004.5,1,1,"",93
"2022-12-30 00:35:00",2.8,1.8,0.0,0.0,0,1004.5,1,2,"",93
"2022-12-30 00:36:00",2.7,1.7,0.0,0.0,0,1004.5,0,1,"",93
"2022-12-30 00:37:00",2.7,1.7,0.0,0.0,0,1004.4,0,1,"",93
"2022-12-30 00:38:00",2.7,1.7,0.0,0.0,0,1004.4,1,2,"",93
"2022-12-30 00:39:00",2.8,1.8,0.0,0.0,0,1004.4,0,1,"",93
"2022-12-30 00:40:00",2.8,1.8,0.0,0.0,0,1004.4,1,2,"",93
"2022-12-30 00:41:00",2.7,1.7,0.0,0.0,0,1004.4,1,2,"",93
"2022-12-30 00:42:00",2.7,1.7,0.0,0.0,0,1004.4,1,2,"",93
"2022-12-30 00:43:00",2.7,1.7,0.0,0.0,0,1004.4,0,2,"",93
"2022-12-30 00:44:00",2.7,1.7,0.0,0.0,0,1004.4,1,3,"",93
"2022-12-30 00:45:00",2.7,1.7,0.0,0.0,0,1004.4,0,1,"",93
"2022-12-30 00:46:00",2.7,1.7,0.0,0.0,0,1004.3,0,1,"",93
"2022-12-30 00:47:00",2.7,1.7,0.0,0.0,0,1004.3,2,5,0.4,93
"2022-12-30 00:48:00",2.8,1.8,0.0,0.0,0,1004.3,2,5,0.4,93
"2022-12-30 00:49:00",2.8,1.9,0.0,0.0,0,1004.3,2,4,1.0,94
"2022-12-30 00:50:00",2.8,1.9,0.0,0.0,0,1004.3,1,2,"",94
"2022-12-30 00:51:00",2.8,1.9,0.0,0.0,0,1004.3,0,1,"",94
"2022-12-30 00:52:00",2.8,1.9,0.0,0.0,0,1004.2,1,2,"",94
"2022-12-30 00:53:00",2.8,1.9,0.0,0.0,0,1004.2,0,1,"",94
"2022-12-30 00:54:00",2.8,1.9,0.0,0.0,0,1004.3,1,1,"",94
"2022-12-30 00:55:00",2.8,1.9,0.0,0.0,0,1004.3,1,3,"",94
"2022-12-30 00:56:00",2.8,1.9,0.0,0.0,0,1004.3,1,3,"",94
"2022-12-30 00:57:00",2.8,1.9,0.0,0.0,0,1004.2,1,2,"",94
"2022-12-30 00:58:00",2.8,1.9,0.0,0.0,0,1004.3,1,2,"",94
"2022-12-30 00:59:00",2.8,1.9,0.0,0.0,0,1004.2,1,3,"",94
"2022-12-30 01:00:00",2.8,1.9,0.0,0.0,0,1004.2,2,3,"",94
"2022-12-30 01:01:00",2.8,1.9,0.0,0.0,0,1004.3,1,2,"",94
"2022-12-30 01:02:00",2.8,1.9,0.0,0.0,0,1004.2,2,3,"",94
"2022-12-30 01:03:00",2.8,1.9,0.0,0.0,0,1004.2,2,4,1.0,94
"2022-12-30 01:04:00",2.8,1.9,0.0,0.0,0,1004.2,0,2,"",94
"2022-12-30 01:05:00",2.8,1.9,0.0,0.0,0,1004.1,2,4,1.0,94
"2022-12-30 01:06:00",2.8,1.9,0.0,0.0,0,1004.1,3,5,0.5,94
"2022-12-30 01:07:00",2.8,1.9,0.0,0.0,0,1004.1,2,3,"",94
"2022-12-30 01:08:00",2.9,2.0,0.0,0.0,0,1004.1,2,3,"",94
"2022-12-30 01:09:00",2.9,2.0,0.0,0.0,0,1004.1,1,2,"",94
"2022-12-30 01:10:00",2.9,2.0,0.0,0.0,0,1004.1,2,3,"",94
"2022-12-30 01:11:00",2.9,2.0,0.0,0.0,0,1004.1,1,2,"",94
"2022-12-30 01:12:00",2.9,2.0,0.0,0.0,0,1004.0,1,3,"",94
"2022-12-30 01:13:00",2.9,2.0,0.0,0.0,0,1004.0,2,5,0.7,94
"2022-12-30 01:14:00",2.9,2.0,0.0,0.0,0,1004.0,2,4,1.2,94
"2022-12-30 01:15:00",2.9,2.0,0.0,0.0,0,1004.0,2,3,"",94
"2022-12-30 01:16:00",2.9,2.0,0.0,0.0,0,1004.0,2,5,0.7,94
"2022-12-30 01:17:00",3.1,2.2,0.0,0.0,0,1003.9,3,5,0.7,94
"2022-12-30 01:18:00",3.1,2.2,0.0,0.0,0,1003.9,2,6,0.5,94
"2022-12-30 01:19:00",3.1,2.2,0.0,0.0,0,1003.9,2,3,"",94
"2022-12-30 01:20:00",3.1,2.2,0.0,0.0,0,1003.9,1,3,"",94
"2022-12-30 01:21:00",3.2,2.3,0.0,0.0,0,1003.9,2,3,"",94
"2022-12-30 01:22:00",3.2,2.3,0.0,0.0,0,1003.9,2,3,"",94
"2022-12-30 01:23:00",3.2,2.3,0.0,0.0,0,1003.9,1,4,1.5,94
"2022-12-30 01:24:00",3.2,2.3,0.0,0.0,0,1003.8,2,4,1.5,94
"2022-12-30 01:25:00",3.2,2.5,0.0,0.0,0,1003.8,1,5,1.0,95
"2022-12-30 01:26:00",3.3,2.6,0.0,0.0,0,1003.7,3,6,0.7,95
"2022-12-30 01:27:00",3.3,2.6,0.0,0.0,0,1003.7,2,3,"",95
"2022-12-30 01:28:00",3.4,2.7,0.0,0.0,0,1003.6,2,5,1.1,95
"2022-12-30 01:29:00",3.4,2.7,0.0,0.0,0,1003.6,2,5,1.2,95
"2022-12-30 01:30:00",3.4,2.7,0.0,0.0,0,1003.6,2,4,1.7,95
"2022-12-30 01:31:00",3.5,2.8,0.0,0.0,0,1003.6,2,3,"",95
"2022-12-30 01:32:00",3.6,2.9,0.0,0.0,0,1003.6,2,3,"",95
"2022-12-30 01:33:00",3.6,2.9,0.0,0.0,0,1003.6,2,3,"",95
"2022-12-30 01:34:00",3.6,2.9,0.0,0.0,0,1003.6,1,3,"",95
"2022-12-30 01:35:00",3.6,2.9,0.0,0.0,0,1003.7,2,3,"",95
"2022-12-30 01:36:00",3.7,3.0,0.0,0.0,0,1003.6,3,4,2.1,95
"2022-12-30 01:37:00",3.7,3.0,0.0,0.0,0,1003.7,3,5,1.6,95
"2022-12-30 01:38:00",3.7,3.0,0.0,0.0,0,1003.7,2,3,"",95
"2022-12-30 01:39:00",3.8,3.1,0.0,0.0,0,1003.8,2,3,"",95
"2022-12-30 01:40:00",3.8,3.1,0.0,0.0,0,1003.8,2,3,"",95
"2022-12-30 01:41:00",3.9,3.2,0.0,0.0,0,1003.7,1,2,"",95
"2022-12-30 01:42:00",3.9,3.2,0.0,0.0,0,1003.7,2,3,"",95
"2022-12-30 01:43:00",4.0,3.3,0.0,0.0,0,1003.7,2,4,2.4,95
"2022-12-30 01:44:00",4.1,3.4,0.0,0.0,0,1003.6,1,2,"",95
"2022-12-30 01:45:00",4.1,3.4,0.0,0.0,0,1003.7,3,7,1.3,95
"2022-12-30 01:46:00",4.3,3.6,0.0,0.0,0,1003.7,5,6,1.8,95
"2022-12-30 01:47:00",4.4,3.8,0.0,0.0,0,1003.7,5,10,0.8,96
"2022-12-30 01:48:00",4.6,4.0,0.0,0.0,0,1003.6,4,9,1.1,96
"2022-12-30 01:49:00",4.7,4.1,0.0,0.0,0,1003.5,2,4,3.2,96
"2022-12-30 01:50:00",4.8,4.2,0.0,0.0,0,1003.6,2,5,2.9,96
"2022-12-30 01:51:00",4.8,4.2,0.0,0.0,0,1003.6,2,6,2.5,96
"2022-12-30 01:52:00",4.9,4.3,0.0,0.0,0,1003.5,3,5,3.0,96
"2022-12-30 01:53:00",5.0,4.4,0.0,0.0,0,1003.6,2,3,"",96
"2022-12-30 01:54:00",5.1,4.5,0.0,0.0,0,1003.5,2,3,"",96
"2022-12-30 01:55:00",5.2,4.6,0.0,0.0,0,1003.6,2,4,3.8,96
"2022-12-30 01:56:00",5.2,4.6,0.0,0.0,0,1003.6,3,5,3.4,96
"2022-12-30 01:57:00",5.3,4.7,0.0,0.0,0,1003.5,4,6,3.0,96
"2022-12-30 01:58:00",5.3,4.7,0.0,0.0,0,1003.5,2,3,"",96
"2022-12-30 01:59:00",5.4,4.8,0.0,0.0,0,1003.6,2,3,"",96
"2022-12-30 02:00:00",5.4,4.8,0.0,0.0,0,1003.6,2,3,"",96
"2022-12-30 02:01:00",5.5,4.9,0.0,0.0,0,1003.5,1,2,"",96
"2022-12-30 02:02:00",5.5,4.9,0.0,0.0,0,1003.6,1,2,"",96
"2022-12-30 02:03:00",5.6,5.0,0.0,0.0,0,1003.6,3,6,3.4,96
"2022-12-30 02:04:00",5.7,5.1,0.0,0.0,0,1003.6,3,7,3.2,96
"2022-12-30 02:05:00",5.8,5.2,0.0,0.0,0,1003.6,2,5,3.9,96
"2022-12-30 02:06:00",5.8,5.2,0.0,0.0,0,1003.6,4,7,3.4,96
"2022-12-30 02:07:00",5.9,5.3,0.0,0.0,0,1003.6,3,6,3.7,96
"2022-12-30 02:08:00",6.1,5.5,0.0,0.0,0,1003.5,4,8,3.2,96
"2022-12-30 02:09:00",6.2,5.6,0.0,0.0,0,1003.5,3,5,4.4,96
"2022-12-30 02:10:00",6.3,5.7,0.0,0.0,0,1003.6,4,6,4.2,96
"2022-12-30 02:11:00",6.3,5.7,0.0,0.0,0,1003.5,3,4,5.1,96
"2022-12-30 02:12:00",6.4,5.8,0.0,0.0,0,1003.6,4,8,3.7,96
"2022-12-30 02:13:00",6.6,6.0,0.0,0.0,0,1003.6,4,6,4.5,96
"2022-12-30 02:14:00",6.6,6.0,0.0,0.0,0,1003.5,4,6,4.6,96
"2022-12-30 02:15:00",6.8,6.2,0.0,0.0,0,1003.6,2,6,4.6,96
"2022-12-30 02:16:00",6.8,6.2,0.0,0.0,0,1003.5,3,6,4.9,96
"2022-12-30 02:17:00",6.8,6.2,0.0,0.0,0,1003.5,2,3,"",96
"2022-12-30 02:18:00",6.9,6.3,0.0,0.0,0,1003.5,3,7,4.6,96
"2022-12-30 02:19:00",6.9,6.3,0.0,0.0,0,1003.4,2,4,5.8,96
"2022-12-30 02:20:00",6.9,6.3,0.0,0.0,0,1003.4,4,7,4.7,96
"2022-12-30 02:21:00",6.9,6.3,0.0,0.0,0,1003.4,4,6,5.0,96
"2022-12-30 02:22:00",7.1,6.5,0.0,0.0,0,1003.3,3,7,4.7,96
"2022-12-30 02:23:00",7.1,6.5,0.0,0.0,0,1003.3,4,7,4.8,96
"2022-12-30 02:24:00",7.1,6.5,0.0,0.0,0,1003.3,2,5,5.6,96
"2022-12-30 02:25:00",7.1,6.5,0.0,0.0,0,1003.2,3,6,5.2,96
"2022-12-30 02:26:00",7.2,6.6,0.0,0.0,0,1003.3,4,9,4.4,96
"2022-12-30 02:27:00",7.2,6.6,0.0,0.0,0,1003.2,4,6,5.4,96
"2022-12-30 02:28:00",7.3,6.7,0.0,0.0,0,1003.1,3,4,6.2,96
"2022-12-30 02:29:00",7.3,6.7,0.0,0.0,0,1003.1,3,5,5.8,96
"2022-12-30 02:30:00",7.3,6.7,0.0,0.0,0,1003.1,3,7,5.2,96
"2022-12-30 02:31:00",7.3,6.7,0.0,0.0,0,1003.0,3,7,5.2,96
"2022-12-30 02:32:00",7.3,6.7,0.0,0.0,0,1003.1,6,9,4.7,96
"2022-12-30 02:33:00",7.4,6.8,0.0,0.0,0,1003.1,4,6,5.5,96
"2022-12-30 02:34:00",7.4,6.8,0.0,0.0,0,1003.1,4,7,5.2,96
"2022-12-30 02:35:00",7.4,6.8,0.0,0.0,0,1003.1,1,3,"",96
"2022-12-30 02:36:00",7.4,6.8,0.0,0.0,0,1003.0,3,5,5.9,96
"2022-12-30 02:37:00",7.4,6.8,0.0,0.0,0,1003.0,2,4,6.4,96
"2022-12-30 02:38:00",7.4,6.8,0.0,0.0,0,1003.0,3,6,5.6,96
"2022-12-30 02:39:00",7.4,6.8,0.0,0.0,0,1003.0,4,7,5.3,96
"2022-12-30 02:40:00",7.4,6.8,0.0,0.0,0,1003.0,4,8,5.0,96
"2022-12-30 02:41:00",7.4,6.8,0.0,0.0,0,1003.0,2,4,6.4,96
"2022-12-30 02:42:00",7.4,6.8,0.0,0.0,0,1002.9,2,4,6.4,96
"2022-12-30 02:43:00",7.5,6.9,0.0,0.0,0,1002.9,3,5,5.9,96
"2022-12-30 02:44:00",7.4,6.8,0.0,0.0,0,1002.9,3,6,5.7,96
"2022-12-30 02:45:00",7.5,6.9,0.0,0.0,0,1002.9,4,7,5.3,96
"2022-12-30 02:46:00",7.5,6.9,0.0,0.0,0,1002.9,2,4,6.4,96
"2022-12-30 02:47:00",7.5,6.9,0.0,0.0,0,1002.9,4,6,5.7,96
"2022-12-30 02:48:00",7.4,6.8,0.0,0.0,0,1002.9,5,7,5.4,96
"2022-12-30 02:49:00",7.5,6.9,0.0,0.0,0,1002.8,3,5,5.9,96
"2022-12-30 02:50:00",7.5,6.9,0.0,0.0,0,1002.8,2,4,6.5,96
"2022-12-30 02:51:00",7.5,6.9,0.0,0.0,0,1002.9,1,2,"",96
"2022-12-30 02:52:00",7.5,6.9,0.0,0.0,0,1002.8,4,7,5.4,96
"2022-12-30 02:53:00",7.5,6.9,0.0,0.0,0,1002.8,3,7,5.4,96
"2022-12-30 02:54:00",7.5,6.9,0.0,0.0,0,1002.7,2,5,6.1,96
"2022-12-30 02:55:00",7.5,6.9,0.0,0.0,0,1002.7,4,7,5.4,96
"2022-12-30 02:56:00",7.5,6.9,0.0,0.0,0,1002.7,3,5,6.1,96
"2022-12-30 02:57:00",7.5,6.9,0.0,0.0,0,1002.7,5,10,4.7,96
"2022-12-30 02:58:00",7.5,6.9,0.0,0.0,0,1002.6,3,7,5.4,96
"2022-12-30 02:59:00",7.6,7.0,0.0,0.0,0,1002.7,4,7,5.4,96
"2022-12-30 03:00:00",7.6,7.0,0.0,0.0,0,1002.6,4,7,5.5,96
"2022-12-30 03:01:00",7.6,7.0,0.0,0.0,0,1002.6,4,5,6.2,96
"2022-12-30 03:02:00",7.6,7.0,0.0,0.0,0,1002.5,2,5,6.2,96
"2022-12-30 03:03:00",7.6,7.0,0.0,0.0,0,1002.6,2,3,"",96
"2022-12-30 03:04:00",7.6,7.0,0.0,0.0,0,1002.5,3,6,5.8,96
"2022-12-30 03:05:00",7.6,7.0,0.0,0.0,0,1002.4,2,3,"",96
"2022-12-30 03:06:00",7.6,7.0,0.0,0.0,0,1002.4,2,3,"",96
"2022-12-30 03:07:00",7.6,7.0,0.0,0.0,0,1002.3,2,4,6.6,96
"2022-12-30 03:08:00",7.6,7.0,0.0,0.0,0,1002.4,4,10,4.8,96
"2022-12-30 03:09:00",7.6,7.0,0.0,0.0,0,1002.3,6,10,4.8,96
"2022-12-30 03:10:00",7.6,7.0,0.0,0.0,0,1002.3,3,6,5.8,96
"2022-12-30 03:11:00",7.7,7.1,0.0,0.0,0,1002.3,6,12,4.4,96
"2022-12-30 03:12:00",7.7,7.1,0.0,0.0,0,1002.2,3,6,6.0,96
"2022-12-30 03:13:00",7.7,7.1,0.0,0.0,0,1002.2,4,7,5.7,96
"2022-12-30 03:14:00",7.8,7.2,0.0,0.0,0,1002.2,4,6,6.0,96
"2022-12-30 03:15:00",7.7,7.1,0.0,0.0,0,1002.0,3,6,6.0,96
"2022-12-30 03:16:00",7.7,7.1,0.0,0.0,0,1002.1,3,5,6.3,96
"2022-12-30 03:17:00",7.8,7.2,0.0,0.0,0,1002.0,2,3,"",96
"2022-12-30 03:18:00",7.8,7.2,0.0,0.0,0,1002.0,4,6,6.0,96
"2022-12-30 03:19:00",7.7,7.1,0.0,0.0,0,1001.9,4,8,5.5,96
"2022-12-30 03:20:00",7.8,7.2,0.0,0.0,0,1002.0,4,9,5.3,96
"2022-12-30 03:21:00",7.8,7.2,0.0,0.0,0,1002.0,2,4,6.8,96
"2022-12-30 03:22:00",7.8,7.0,0.0,0.0,0,1002.0,2,3,"",95
"2022-12-30 03:23:00",7.8,7.2,0.0,0.0,0,1002.0,2,4,6.8,96
"2022-12-30 03:24:00",7.8,7.2,0.0,0.0,0,1002.0,4,6,6.1,96
"2022-12-30 03:25:00",7.8,7.2,0.0,0.0,0,1002.1,7,16,4.0,96
"2022-12-30 03:26:00",7.8,7.2,0.0,0.0,0,1002.0,4,9,5.3,96
"2022-12-30 03:27:00",7.8,7.2,0.0,0.0,0,1001.9,4,9,5.3,96
"2022-12-30 03:28:00",7.8,7.2,0.0,0.0,0,1001.9,4,7,5.8,96
"2022-12-30 03:29:00",7.8,7.2,0.0,0.0,0,1001.8,4,7,5.8,96
"2022-12-30 03:30:00",7.8,7.2,0.0,0.0,0,1001.8,4,7,5.8,96
"2022-12-30 03:31:00",7.8,7.2,0.0,0.0,0,1001.7,4,7,5.8,96
"2022-12-30 03:32:00",7.8,7.0,0.0,0.0,0,1001.8,5,8,5.5,95
"2022-12-30 03:33:00",7.8,7.0,0.0,0.0,0,1001.7,3,5,6.4,95
"2022-12-30 03:34:00",7.8,7.0,0.0,0.0,0,1001.8,4,6,6.1,95
"2022-12-30 03:35:00",7.8,7.0,0.0,0.0,0,1001.7,3,4,6.8,95
"2022-12-30 03:36:00",7.8,7.0,0.0,0.0,0,1001.8,3,6,6.1,95
"2022-12-30 03:37:00",7.8,7.0,0.0,0.0,0,1001.7,4,7,5.8,95
"2022-12-30 03:38:00",7.9,7.1,0.0,0.0,0,1001.7,4,8,5.5,95
"2022-12-30 03:39:00",7.8,7.0,0.0,0.0,0,1001.7,4,6,6.1,95
"2022-12-30 03:40:00",7.9,7.1,0.0,0.0,0,1001.8,3,5,6.4,95
"2022-12-30 03:41:00",7.8,7.0,0.0,0.0,0,1001.8,3,5,6.4,95
"2022-12-30 03:42:00",7.8,7.0,0.0,0.0,0,1001.7,5,9,5.3,95
"2022-12-30 03:43:00",7.8,7.0,0.0,0.0,0,1001.7,5,8,5.5,95
"2022-12-30 03:44:00",7.8,7.0,0.0,0.0,0,1001.7,5,8,5.5,95
"2022-12-30 03:45:00",7.9,7.1,0.0,0.0,0,1001.7,5,10,5.1,95
"2022-12-30 03:46:00",7.9,7.1,0.0,0.0,0,1001.6,1,3,"",95
"2022-12-30 03:47:00",7.8,7.0,0.0,0.0,0,1001.6,4,8,5.5,95
"2022-12-30 03:48:00",7.9,7.1,0.0,0.0,0,1001.5,2,4,6.8,95
"2022-12-30 03:49:00",7.8,7.0,0.0,0.0,0,1001.4,2,3,"",95
"2022-12-30 03:50:00",7.8,7.0,0.0,0.0,0,1001.4,6,12,4.7,95
"2022-12-30 03:51:00",7.9,7.1,0.0,0.0,0,1001.4,3,6,6.1,95
"2022-12-30 03:52:00",7.9,7.1,0.0,0.0,0,1001.3,3,6,6.2,95
"2022-12-30 03:53:00",7.9,7.1,0.0,0.0,0,1001.2,2,5,6.5,95
"2022-12-30 03:54:00",7.8,7.0,0.0,0.0,0,1001.2,3,5,6.4,95
"2022-12-30 03:55:00",7.8,7.0,0.0,0.0,0,1001.1,3,8,5.5,95
"2022-12-30 03:56:00",7.8,7.0,0.0,0.0,0,1001.2,6,10,5.1,95
"2022-12-30 03:57:00",7.8,7.0,0.0,0.0,0,1001.1,2,6,6.1,95
"2022-12-30 03:58:00",7.8,7.0,0.0,0.0,0,1001.1,3,6,6.1,95
"2022-12-30 03:59:00",7.8,7.0,0.0,0.0,0,1001.0,3,6,6.1,95
"2022-12-30 04:00:00",7.9,7.1,0.0,0.0,0,1001.0,4,6,6.1,95
"2022-12-30 04:01:00",7.8,7.0,0.0,0.0,0,1001.0,2,3,"",95
"2022-12-30 04:02:00",7.8,7.0,0.0,0.0,0,1000.9,2,5,6.4,95
"2022-12-30 04:03:00",7.8,6.9,0.0,0.0,0,1001.0,3,7,5.8,94
"2022-12-30 04:04:00",7.8,6.9,0.0,0.0,0,1000.9,3,6,6.1,94
"2022-12-30 04:05:00",7.8,6.9,0.0,0.0,0,1000.9,4,6,6.1,94
"2022-12-30 04:06:00",7.8,7.0,0.0,0.0,0,1000.9,2,7,5.8,95
"2022-12-30 04:07:00",7.8,6.9,0.0,0.0,0,1000.7,4,7,5.8,94
"2022-12-30 04:08:00",7.8,6.9,0.0,0.0,0,1000.9,5,8,5.5,94
"2022-12-30 04:09:00",7.8,6.9,0.0,0.0,0,1000.8,2,3,"",94
"2022-12-30 04:10:00",7.8,6.9,0.0,0.0,0,1000.7,2,4,6.8,94
"2022-12-30 04:11:00",7.8,6.9,0.0,0.0,0,1000.7,3,5,6.4,94
"2022-12-30 04:12:00",7.8,6.9,0.0,0.0,0,1000.6,2,4,6.8,94
"2022-12-30 04:13:00",7.8,6.9,0.0,0.0,0,1000.5,3,4,6.8,94
"2022-12-30 04:14:00",7.8,6.9,0.0,0.0,0,1000.6,3,5,6.4,94
"2022-12-30 04:15:00",7.8,6.9,0.0,0.0,0,1000.6,3,9,5.3,94
"2022-12-30 04:16:00",7.8,6.9,0.0,0.0,0,1000.5,3,5,6.4,94
"2022-12-30 04:17:00",7.8,6.9,0.0,0.0,0,1000.4,4,10,5.1,94
"2022-12-30 04:18:00",7.8,6.9,0.0,0.0,0,1000.4,4,7,5.8,94
"2022-12-30 04:19:00",7.8,6.9,0.0,0.0,0,1000.4,2,5,6.4,94
"2022-12-30 04:20:00",7.8,6.9,0.0,0.0,0,1000.3,5,10,5.1,94
"2022-12-30 04:21:00",7.8,6.9,0.0,0.0,0,1000.3,5,10,5.1,94
"2022-12-30 04:22:00",7.9,7.0,0.0,0.0,0,1000.3,6,11,4.9,94
"2022-12-30 04:23:00",7.8,6.9,0.0,0.0,0,1000.3,3,7,5.8,94
"2022-12-30 04:24:00",7.9,7.0,0.0,0.0,0,1000.3,4,7,5.8,94
"2022-12-30 04:25:00",7.9,7.0,0.0,0.0,0,1000.3,4,8,5.6,94
"2022-12-30 04:26:00",7.9,6.8,0.0,0.0,0,1000.3,3,6,6.2,93
"2022-12-30 04:27:00",7.9,6.8,0.0,0.0,0,1000.3,8,13,4.6,93
"2022-12-30 04:28:00",7.9,6.8,0.0,0.0,0,1000.2,6,14,4.5,93
"2022-12-30 04:29:00",7.9,6.8,0.0,0.0,0,1000.2,4,6,6.2,93
"2022-12-30 04:30:00",7.9,6.8,0.0,0.0,0,1000.2,3,6,6.2,93
"2022-12-30 04:31:00",8.0,6.9,0.0,0.0,0,1000.2,6,10,5.2,93
"2022-12-30 04:32:00",8.0,6.9,0.0,0.0,0,1000.2,7,10,5.3,93
"2022-12-30 04:33:00",8.1,7.0,0.0,0.0,0,1000.1,5,9,5.5,93
"2022-12-30 04:34:00",8.0,6.9,0.0,0.0,0,1000.1,4,8,5.8,93
"2022-12-30 04:35:00",8.1,7.0,0.0,0.0,0,1000.2,5,12,5.1,93
"2022-12-30 04:36:00",8.1,7.0,0.0,0.0,0,1000.1,4,8,5.9,93
"2022-12-30 04:37:00",8.1,7.0,0.0,0.0,0,1000.0,5,11,5.2,93
"2022-12-30 04:38:00",8.1,7.0,0.0,0.0,0,1000.0,4,5,6.8,93
"2022-12-30 04:39:00",8.1,7.0,0.0,0.0,0,999.9,5,7,6.1,93
"2022-12-30 04:40:00",8.2,7.1,0.0,0.0,0,999.8,5,8,5.9,93
"2022-12-30 04:41:00",8.2,7.1,0.0,0.0,0,999.8,6,13,4.9,93
"2022-12-30 04:42:00",8.2,7.1,0.0,0.0,0,999.8,4,10,5.6,93
"2022-12-30 04:43:00",8.2,7.1,0.0,0.0,0,999.7,5,8,6.0,93
"2022-12-30 04:44:00",8.2,7.1,0.0,0.0,0,999.7,5,8,6.0,93
"2022-12-30 04:45:00",8.2,7.1,0.0,0.0,0,999.8,4,11,5.4,93
"2022-12-30 04:46:00",8.2,7.1,0.0,0.0,0,999.7,4,6,6.5,93
"2022-12-30 04:47:00",8.2,7.1,0.0,0.0,0,999.6,4,5,6.9,93
"2022-12-30 04:48:00",8.2,7.1,0.0,0.0,0,999.5,8,15,4.7,93
"2022-12-30 04:49:00",8.3,7.2,0.0,0.0,0,999.5,6,11,5.5,93
"2022-12-30 04:50:00",8.3,7.1,0.0,0.0,0,999.5,3,8,6.1,92
"2022-12-30 04:51:00",8.3,7.1,0.0,0.0,0,999.4,2,3,"",92
"2022-12-30 04:52:00",8.3,7.1,0.0,0.0,0,999.4,3,6,6.7,92
"2022-12-30 04:53:00",8.3,7.1,0.0,0.0,0,999.4,5,11,5.5,92
"2022-12-30 04:54:00",8.3,7.1,0.0,0.0,0,999.3,6,10,5.7,92
"2022-12-30 04:55:00",8.3,7.1,0.0,0.0,0,999.3,2,4,7.4,92
"2022-12-30 04:56:00",8.3,7.1,0.0,0.0,0,999.2,3,5,7.0,92
"2022-12-30 04:57:00",8.3,7.1,0.0,0.0,0,999.3,5,10,5.7,92
"2022-12-30 04:58:00",8.3,7.1,0.0,0.0,0,999.3,2,8,6.1,92
"2022-12-30 04:59:00",8.4,7.2,0.0,0.0,0,999.2,4,6,6.8,92
"2022-12-30 05:00:00",8.3,7.1,0.0,0.0,0,999.3,5,10,5.8,92
"2022-12-30 05:01:00",8.3,7.1,0.0,0.0,0,999.2,3,6,6.7,92
"2022-12-30 05:02:00",8.3,7.1,0.0,0.0,0,999.2,2,4,7.4,92
"2022-12-30 05:03:00",8.3,7.1,0.0,0.0,0,999.1,2,4,7.4,92
"2022-12-30 05:04:00",8.3,7.1,0.0,0.0,0,999.1,3,5,7.0,92
"2022-12-30 05:05:00",8.3,7.1,0.0,0.0,0,999.0,5,9,5.9,92
"2022-12-30 05:06:00",8.4,7.2,0.0,0.0,0,999.0,5,9,6.0,92
"2022-12-30 05:07:00",8.4,7.2,0.0,0.0,0,998.9,5,9,6.0,92
"2022-12-30 05:08:00",8.4,7.2,0.0,0.0,0,998.9,2,3,"",92
"2022-12-30 05:09:00",8.4,7.2,0.0,0.0,0,998.8,3,5,7.1,92
"2022-12-30 05:10:00",8.4,7.2,0.0,0.0,0,998.9,4,9,6.0,92
"2022-12-30 05:11:00",8.4,7.2,0.0,0.0,0,998.8,4,6,6.8,92
"2022-12-30 05:12:00",8.4,7.2,0.0,0.0,0,998.8,5,13,5.3,92
"2022-12-30 05:13:00",8.4,7.2,0.0,0.0,0,998.7,5,8,6.2,92
"2022-12-30 05:14:00",8.4,7.2,0.0,0.0,0,998.7,3,6,6.8,92
"2022-12-30 05:15:00",8.4,7.2,0.0,0.0,0,998.7,5,11,5.6,92
"2022-12-30 05:16:00",8.4,7.2,0.0,0.0,0,998.7,6,10,5.8,92
"2022-12-30 05:17:00",8.4,7.2,0.0,0.0,0,998.7,5,7,6.5,92
"2022-12-30 05:18:00",8.4,7.2,0.0,0.0,0,998.6,4,6,6.8,92
"2022-12-30 05:19:00",8.4,7.2,0.0,0.0,0,998.5,5,13,5.3,92
"2022-12-30 05:20:00",8.5,7.3,0.0,0.0,0,998.5,6,9,6.0,92
"2022-12-30 05:21:00",8.5,7.3,0.0,0.0,0,998.5,4,9,6.1,92
"2022-12-30 05:22:00",8.5,7.3,0.0,0.0,0,998.5,5,8,6.4,92
"2022-12-30 05:23:00",8.5,7.3,0.0,0.0,0,998.5,5,11,5.7,92
"2022-12-30 05:24:00",8.6,7.4,0.0,0.0,0,998.5,4,6,6.9,92
"2022-12-30 05:25:00",8.6,7.4,0.0,0.0,0,998.4,4,10,6.0,92
"2022-12-30 05:26:00",8.6,7.4,0.0,0.0,0,998.5,5,13,5.5,92
"2022-12-30 05:27:00",8.6,7.2,0.0,0.0,0,998.3,5,12,5.7,91
"2022-12-30 05:28:00",8.6,7.2,0.0,0.0,0,998.4,4,7,6.7,91
"2022-12-30 05:29:00",8.6,7.2,0.0,0.0,0,998.3,4,13,5.5,91
"2022-12-30 05:30:00",8.6,7.2,0.0,0.0,0,998.3,7,14,5.4,91
"2022-12-30 05:31:00",8.7,7.5,0.0,0.0,0,998.2,5,9,6.3,92
"2022-12-30 05:32:00",8.7,7.5,0.0,0.0,0,998.2,4,7,6.9,92
"2022-12-30 05:33:00",8.7,7.5,0.0,0.0,0,998.2,6,11,6.0,92
"2022-12-30 05:34:00",8.7,7.5,0.0,0.0,0,998.1,5,10,6.2,92
"2022-12-30 05:35:00",8.7,7.5,0.0,0.0,0,998.1,2,3,"",92
"2022-12-30 05:36:00",8.7,7.3,0.0,0.0,0,998.0,4,10,6.2,91
"2022-12-30 05:37:00",8.7,7.3,0.0,0.0,0,998.0,4,7,6.9,91
"2022-12-30 05:38:00",8.7,7.3,0.0,0.0,0,997.9,3,9,6.4,91
"2022-12-30 05:39:00",8.7,7.3,0.0,0.0,0,998.0,4,7,6.9,91
"2022-12-30 05:40:00",8.7,7.3,0.0,0.0,0,997.9,3,6,7.1,91
"2022-12-30 05:41:00",8.7,7.3,0.0,0.0,0,997.9,4,8,6.6,91
"2022-12-30 05:42:00",8.8,7.4,0.0,0.0,0,997.9,3,8,6.6,91
"2022-12-30 05:43:00",8.8,7.4,0.0,0.0,0,997.9,3,7,7.0,91
"2022-12-30 05:44:00",8.8,7.4,0.0,0.0,0,997.8,4,7,7.0,91
"2022-12-30 05:45:00",8.8,7.4,0.0,0.0,0,997.7,3,5,7.6,91
"2022-12-30 05:46:00",8.8,7.4,0.0,0.0,0,997.7,5,11,6.1,91
"2022-12-30 05:47:00",8.8,7.4,0.0,0.0,0,997.9,4,7,7.0,91
"2022-12-30 05:48:00",8.8,7.4,0.0,0.0,0,997.7,7,14,5.6,91
"2022-12-30 05:49:00",8.8,7.4,0.0,0.0,0,997.7,6,11,6.1,91
"2022-12-30 05:50:00",8.8,7.4,0.0,0.0,0,997.8,5,7,7.0,91
"2022-12-30 05:51:00",8.8,7.4,0.0,0.0,0,997.6,6,14,5.6,91
"2022-12-30 05:52:00",8.9,7.5,0.0,0.0,0,997.7,3,6,7.3,91
"2022-12-30 05:53:00",8.8,7.4,0.0,0.0,0,997.6,4,8,6.8,91
"2022-12-30 05:54:00",8.9,7.5,0.0,0.0,0,997.6,5,9,6.6,91
"2022-12-30 05:55:00",8.9,7.5,0.0,0.0,0,997.5,4,6,7.4,91
"2022-12-30 05:56:00",8.9,7.5,0.0,0.0,0,997.6,5,10,6.4,91
"2022-12-30 05:57:00",8.9,7.5,0.0,0.0,0,997.6,3,7,7.1,91
"2022-12-30 05:58:00",8.9,7.5,0.0,0.0,0,997.5,5,11,6.2,91
"2022-12-30 05:59:00",8.9,7.5,0.0,0.0,0,997.6,4,7,7.1,91
"2022-12-30 06:00:00",8.9,7.5,0.0,0.0,0,997.6,6,9,6.6,91
"2022-12-30 06:01:00",8.9,7.5,0.0,0.0,0,997.5,3,6,7.4,91
"2022-12-30 06:02:00",8.9,7.5,0.0,0.0,0,997.5,2,4,8.1,91
"2022-12-30 06:03:00",8.9,7.5,0.0,0.0,0,997.5,5,8,6.8,91
"2022-12-30 06:04:00",9.0,7.6,0.0,0.0,0,997.4,4,8,6.8,91
"2022-12-30 06:05:00",9.0,7.6,0.0,0.0,0,997.3,4,7,7.2,91
"2022-12-30 06:06:00",9.0,7.6,0.0,0.0,0,997.3,3,7,7.2,91
"2022-12-30 06:07:00",9.0,7.6,0.0,0.0,0,997.2,2,5,7.8,91
"2022-12-30 06:08:00",9.0,7.6,0.0,0.0,0,997.2,2,5,7.8,91
"2022-12-30 06:09:00",9.0,7.6,0.0,0.0,0,997.1,5,10,6.5,91
"2022-12-30 06:10:00",9.1,7.7,0.0,0.0,0,997.1,3,7,7.2,91
"2022-12-30 06:11:00",9.1,7.7,0.0,0.0,0,997.1,1,4,8.3,91
"2022-12-30 06:12:00",9.1,7.7,0.0,0.0,0,997.2,5,9,6.9,91
"2022-12-30 06:13:00",9.1,7.7,0.0,0.0,0,997.1,4,8,7.0,91
"2022-12-30 06:14:00",9.1,7.7,0.0,0.0,0,997.0,6,12,6.3,91
"2022-12-30 06:15:00",9.1,7.7,0.0,0.0,0,997.0,6,9,6.9,91
"2022-12-30 06:16:00",9.1,7.7,0.0,0.0,0,997.0,5,13,6.1,91
"2022-12-30 06:17:00",9.1,7.7,0.0,0.0,0,997.0,4,11,6.5,91
"2022-12-30 06:18:00",9.1,7.7,0.0,0.0,0,997.0,6,9,6.9,91
"2022-12-30 06:19:00",9.1,7.7,0.0,0.0,0,996.9,4,9,6.9,91
"2022-12-30 06:20:00",9.1,7.7,0.0,0.0,0,997.0,6,12,6.3,91
"2022-12-30 06:21:00",9.1,7.7,0.0,0.0,0,996.9,5,10,6.7,91
"2022-12-30 06:22:00",9.1,7.7,0.0,0.0,0,996.8,8,12,6.3,91
"2022-12-30 06:23:00",9.1,7.7,0.0,0.0,0,996.7,6,10,6.7,91
"2022-12-30 06:24:00",9.2,7.8,0.0,0.0,0,996.7,5,11,6.5,91
"2022-12-30 06:25:00",9.1,7.7,0.0,0.0,0,996.6,5,9,6.9,91
"2022-12-30 06:26:00",9.1,7.7,0.0,0.0,0,996.5,5,12,6.3,91
"2022-12-30 06:27:00",9.1,7.7,0.0,0.0,0,996.5,6,12,6.3,91
"2022-12-30 06:28:00",9.1,7.7,0.0,0.0,0,996.5,4,9,6.9,91
"2022-12-30 06:29:00",9.2,7.8,0.0,0.0,0,996.5,3,6,7.7,91
"2022-12-30 06:30:00",9.2,7.8,0.0,0.0,0,996.5,2,5,8.1,91
"2022-12-30 06:31:00",9.2,7.8,0.0,0.0,0,996.6,4,8,7.1,91
"2022-12-30 06:32:00",9.2,7.8,0.0,0.0,0,996.5,4,6,7.6,91
"2022-12-30 06:33:00",9.2,7.8,0.0,0.0,0,996.4,1,2,"",91
"2022-12-30 06:34:00",9.2,7.8,0.0,0.0,0,996.4,4,6,7.7,91
"2022-12-30 06:35:00",9.2,7.8,0.0,0.0,0,996.4,4,7,7.5,91
"2022-12-30 06:36:00",9.2,7.8,0.0,0.0,0,996.3,7,12,6.3,91
"2022-12-30 06:37:00",9.2,7.8,0.0,0.0,0,996.3,2,6,7.7,91
"2022-12-30 06:38:00",9.2,7.8,0.0,0.0,0,996.2,5,8,7.2,91
"2022-12-30 06:39:00",9.2,7.8,0.0,0.0,0,996.3,5,12,6.4,91
"2022-12-30 06:40:00",9.2,7.8,0.0,0.0,0,996.3,6,11,6.6,91
"2022-12-30 06:41:00",9.2,7.8,0.0,0.0,0,996.3,5,9,7.0,91
"2022-12-30 06:42:00",9.2,7.8,0.0,0.0,0,996.3,6,12,6.4,91
"2022-12-30 06:43:00",9.2,7.8,0.0,0.0,0,996.3,4,11,6.6,91
"2022-12-30 06:44:00",9.2,7.8,0.0,0.0,0,996.2,4,9,7.0,91
"2022-12-30 06:45:00",9.2,7.8,0.0,0.0,0,996.2,8,19,5.5,91
"2022-12-30 06:46:00",9.2,7.8,0.0,0.0,0,996.3,9,16,5.9,91
"2022-12-30 06:47:00",9.2,7.8,0.0,0.0,0,996.2,8,14,6.1,91
"2022-12-30 06:48:00",9.2,7.8,0.0,0.0,0,996.2,5,7,7.5,91
"2022-12-30 06:49:00",9.2,7.8,0.0,0.0,0,996.1,7,13,6.3,91
"2022-12-30 06:50:00",9.2,7.8,0.0,0.0,0,996.1,5,10,6.8,91
"2022-12-30 06:51:00",9.2,7.8,0.0,0.0,0,996.1,4,8,7.2,91
"2022-12-30 06:52:00",9.3,7.9,0.0,0.0,0,996.0,5,9,7.0,91
"2022-12-30 06:53:00",9.3,7.9,0.0,0.0,0,996.1,4,8,7.3,91
"2022-12-30 06:54:00",9.3,7.9,0.0,0.0,0,996.0,4,9,7.0,91